Time,TemperatureF,DewpointF,PressureIn,WindDirection,WindDirectionDegrees,WindSpeedMPH,WindSpeedGustMPH,Humidity,HourlyPrecipIn,Conditions,Clouds,dailyrainin,SoftwareType,DateUTC
2013-02-03 00:00:00,23.0,21.5,30.00,SW,226,1.0,1.0,94,0.00,,,0.00,Wunderground v.1.15,2013-02-03 05:00:00,
2013-02-03 00:10:00,23.0,21.5,30.00,SW,235,0.0,0.0,94,0.00,,,0.00,Wunderground v.1.15,2013-02-03 05:10:00,
2013-02-03 00:15:00,23.1,21.6,30.00,SW,225,0.0,1.0,94,0.00,,,0.00,Wunderground v.1.15,2013-02-03 05:15:00,
2013-02-03 00:20:00,23.1,21.6,30.00,SW,222,1.0,1.0,94,0.00,,,0.00,Wunderground v.1.15,2013-02-03 05:20:00,
2013-02-03 00:25:00,23.1,21.6,29.99,SW,222,1.0,2.0,94,0.00,,,0.00,Wunderground v.1.15,2013-02-03 05:25:00,
2013-02-03 00:30:00,23.1,21.6,30.00,SW,222,1.0,1.0,94,0.00,,,0.00,Wunderground v.1.15,2013-02-03 05:30:00,
2013-02-03 00:35:00,23.1,21.6,29.99,SW,222,1.0,1.0,94,0.00,,,0.00,Wunderground v.1.15,2013-02-03 05:35:00,
2013-02-03 00:45:00,23.2,21.7,29.99,WSW,242,1.0,1.0,94,0.00,,,0.00,Wunderground v.1.15,2013-02-03 05:45:00,
2013-02-03 00:55:00,23.2,21.7,29.98,WSW,242,0.0,1.0,94,0.00,,,0.00,Wunderground v.1.15,2013-02-03 05:55:00,
2013-02-03 01:00:00,23.3,21.8,29.98,WSW,243,0.0,0.0,94,0.00,,,0.00,Wunderground v.1.15,2013-02-03 06:00:00,
2013-02-03 01:10:00,23.3,21.8,29.98,WSW,240,0.0,0.0,94,0.00,,,0.00,Wunderground v.1.15,2013-02-03 06:10:00,
2013-02-03 01:20:00,23.3,21.8,29.98,SW,226,0.0,0.0,94,0.00,,,0.00,Wunderground v.1.15,2013-02-03 06:20:00,
2013-02-03 01:25:00,23.3,21.8,29.97,SW,226,0.0,0.0,94,0.00,,,0.00,Wunderground v.1.15,2013-02-03 06:25:00,
2013-02-03 01:30:00,23.3,21.8,29.97,SW,226,0.0,0.0,94,0.00,,,0.00,Wunderground v.1.15,2013-02-03 06:30:00,
2013-02-03 01:35:00,23.3,21.8,29.97,SSW,208,0.0,1.0,94,0.00,,,0.00,Wunderground v.1.15,2013-02-03 06:35:00,
2013-02-03 01:45:00,23.3,21.8,29.96,SSW,204,1.0,1.0,94,0.00,,,0.00,Wunderground v.1.15,2013-02-03 06:45:00,
2013-02-03 01:50:00,23.3,21.8,29.96,SSW,204,1.0,1.0,94,0.00,,,0.00,Wunderground v.1.15,2013-02-03 06:50:00,
2013-02-03 01:55:00,23.4,21.9,29.96,SSW,207,0.0,1.0,94,0.00,,,0.00,Wunderground v.1.15,2013-02-03 06:55:00,
2013-02-03 02:00:00,23.4,21.9,29.96,SSW,207,0.0,1.0,94,0.00,,,0.00,Wunderground v.1.15,2013-02-03 07:00:00,
2013-02-03 02:10:00,23.3,21.8,29.95,SW,231,1.0,1.0,94,0.00,,,0.00,Wunderground v.1.15,2013-02-03 07:10:00,
2013-02-03 02:20:00,23.3,21.8,29.95,SW,218,2.0,2.0,94,0.00,,,0.00,Wunderground v.1.15,2013-02-03 07:20:00,
2013-02-03 02:25:00,23.2,21.7,29.95,SSW,212,1.0,2.0,94,0.00,,,0.00,Wunderground v.1.15,2013-02-03 07:25:00,
2013-02-03 02:30:00,23.1,21.6,29.95,SSW,212,1.0,1.0,94,0.00,,,0.00,Wunderground v.1.15,2013-02-03 07:30:00,
2013-02-03 02:35:00,23.1,21.6,29.95,SSW,211,0.0,1.0,94,0.00,,,0.00,Wunderground v.1.15,2013-02-03 07:35:00,
2013-02-03 02:45:00,23.1,21.6,29.94,SSW,210,0.0,0.0,94,0.00,,,0.00,Wunderground v.1.15,2013-02-03 07:45:00,
2013-02-03 02:50:00,23.0,21.5,29.94,SSW,210,0.0,0.0,94,0.00,,,0.00,Wunderground v.1.15,2013-02-03 07:50:00,
2013-02-03 03:00:00,23.0,21.5,29.93,SSW,210,0.0,0.0,94,0.00,,,0.00,Wunderground v.1.15,2013-02-03 08:00:00,
2013-02-03 03:10:00,23.0,21.5,29.93,SSW,210,0.0,0.0,94,0.00,,,0.00,Wunderground v.1.15,2013-02-03 08:10:00,
2013-02-03 03:15:00,23.0,21.5,29.93,SSW,210,0.0,0.0,94,0.00,,,0.00,Wunderground v.1.15,2013-02-03 08:15:00,
2013-02-03 03:20:00,23.1,21.6,29.93,SSW,210,0.0,0.0,94,0.00,,,0.00,Wunderground v.1.15,2013-02-03 08:20:00,
2013-02-03 03:25:00,23.1,21.6,29.93,SSW,210,0.0,0.0,94,0.00,,,0.00,Wunderground v.1.15,2013-02-03 08:25:00,
2013-02-03 03:35:00,23.0,21.5,29.92,South,190,0.0,1.0,94,0.00,,,0.00,Wunderground v.1.15,2013-02-03 08:35:00,
2013-02-03 03:40:00,23.0,21.5,29.92,South,190,0.0,1.0,94,0.00,,,0.00,Wunderground v.1.15,2013-02-03 08:40:00,
2013-02-03 03:50:00,22.8,21.3,29.92,South,190,1.0,1.0,94,0.00,,,0.00,Wunderground v.1.15,2013-02-03 08:50:00,
2013-02-03 04:00:00,22.8,21.3,29.91,South,170,0.0,0.0,94,0.00,,,0.00,Wunderground v.1.15,2013-02-03 09:00:00,
2013-02-03 04:10:00,22.7,21.2,29.91,SSW,198,0.0,0.0,94,0.00,,,0.00,Wunderground v.1.15,2013-02-03 09:10:00,
2013-02-03 04:20:00,22.7,21.2,29.91,South,187,0.0,0.0,94,0.00,,,0.00,Wunderground v.1.15,2013-02-03 09:20:00,
2013-02-03 04:25:00,22.7,21.2,29.91,SSW,201,0.0,1.0,94,0.00,,,0.00,Wunderground v.1.15,2013-02-03 09:25:00,
2013-02-03 04:30:00,22.6,21.1,29.91,SSW,201,0.0,1.0,94,0.00,,,0.00,Wunderground v.1.15,2013-02-03 09:30:00,
2013-02-03 04:40:00,22.3,20.8,29.91,SW,224,1.0,1.0,94,0.00,,,0.00,Wunderground v.1.15,2013-02-03 09:40:00,
2013-02-03 04:50:00,22.2,20.7,29.90,SW,222,0.0,0.0,94,0.00,,,0.00,Wunderground v.1.15,2013-02-03 09:50:00,
2013-02-03 04:55:00,22.1,20.6,29.90,SSW,204,0.0,0.0,94,0.00,,,0.00,Wunderground v.1.15,2013-02-03 09:55:00,
2013-02-03 05:00:00,22.1,20.6,29.90,SSW,192,0.0,1.0,94,0.00,,,0.00,Wunderground v.1.15,2013-02-03 10:00:00,
2013-02-03 05:10:00,22.1,20.6,29.90,South,191,0.0,0.0,94,0.00,,,0.00,Wunderground v.1.15,2013-02-03 10:10:00,
2013-02-03 05:20:00,22.1,20.6,29.90,SSW,211,1.0,1.0,94,0.00,,,0.00,Wunderground v.1.15,2013-02-03 10:20:00,
2013-02-03 05:25:00,22.0,20.3,29.90,SSW,207,1.0,1.0,93,0.00,,,0.00,Wunderground v.1.15,2013-02-03 10:25:00,
2013-02-03 05:35:00,21.7,20.0,29.90,SW,235,0.0,2.0,93,0.00,,,0.00,Wunderground v.1.15,2013-02-03 10:35:00,
2013-02-03 05:40:00,21.7,20.0,29.90,WSW,249,1.0,1.0,93,0.00,,,0.00,Wunderground v.1.15,2013-02-03 10:40:00,
2013-02-03 05:50:00,21.5,19.8,29.90,WSW,253,1.0,1.0,93,0.00,,,0.00,Wunderground v.1.15,2013-02-03 10:50:00,
2013-02-03 05:55:00,21.5,19.8,29.90,WSW,252,1.0,1.0,93,0.00,,,0.00,Wunderground v.1.15,2013-02-03 10:55:00,
2013-02-03 06:00:00,21.5,19.8,29.90,WSW,252,0.0,0.0,93,0.00,,,0.00,Wunderground v.1.15,2013-02-03 11:00:00,
2013-02-03 06:10:00,21.5,19.8,29.90,WSW,252,0.0,0.0,93,0.00,,,0.00,Wunderground v.1.15,2013-02-03 11:10:00,
2013-02-03 06:15:00,21.4,19.7,29.90,WSW,252,0.0,0.0,93,0.00,,,0.00,Wunderground v.1.15,2013-02-03 11:15:00,
2013-02-03 06:25:00,21.2,19.5,29.90,SW,221,0.0,1.0,93,0.00,,,0.00,Wunderground v.1.15,2013-02-03 11:25:00,
2013-02-03 06:35:00,20.5,18.8,29.90,SSW,197,1.0,2.0,93,0.00,,,0.00,Wunderground v.1.15,2013-02-03 11:35:00,
2013-02-03 06:40:00,20.1,18.4,29.90,SSW,210,1.0,1.0,93,0.00,,,0.00,Wunderground v.1.15,2013-02-03 11:40:00,
2013-02-03 06:45:00,19.9,18.2,29.90,SSW,211,1.0,1.0,93,0.00,,,0.00,Wunderground v.1.15,2013-02-03 11:45:00,
2013-02-03 06:55:00,19.8,18.4,29.90,SSW,210,1.0,1.0,94,0.00,,,0.00,Wunderground v.1.15,2013-02-03 11:55:00,
2013-02-03 07:00:00,19.8,18.4,29.91,SSW,203,1.0,1.0,94,0.00,,,0.00,Wunderground v.1.15,2013-02-03 12:00:00,
2013-02-03 07:10:00,19.5,18.1,29.90,SSW,201,1.0,1.0,94,0.00,,,0.00,Wunderground v.1.15,2013-02-03 12:10:00,
2013-02-03 07:15:00,19.2,17.8,29.91,SSW,198,1.0,1.0,94,0.00,,,0.00,Wunderground v.1.15,2013-02-03 12:15:00,
2013-02-03 07:20:00,18.6,17.2,29.91,SW,224,1.0,2.0,94,0.00,,,0.00,Wunderground v.1.15,2013-02-03 12:20:00,
2013-02-03 07:30:00,17.7,16.3,29.90,SSW,210,1.0,1.0,94,0.00,,,0.00,Wunderground v.1.15,2013-02-03 12:30:00,
2013-02-03 07:35:00,17.7,16.3,29.90,SSW,208,1.0,1.0,94,0.00,,,0.00,Wunderground v.1.15,2013-02-03 12:35:00,
2013-02-03 07:40:00,17.6,16.2,29.90,SSW,208,1.0,1.0,94,0.00,,,0.00,Wunderground v.1.15,2013-02-03 12:40:00,
2013-02-03 07:50:00,17.6,16.4,29.91,SSW,208,0.0,0.0,95,0.00,,,0.00,Wunderground v.1.15,2013-02-03 12:50:00,
2013-02-03 07:55:00,17.6,16.4,29.91,SSW,208,0.0,0.0,95,0.00,,,0.00,Wunderground v.1.15,2013-02-03 12:55:00,
2013-02-03 08:00:00,17.7,16.5,29.91,SSW,208,0.0,0.0,95,0.00,,,0.00,Wunderground v.1.15,2013-02-03 13:00:00,
2013-02-03 08:10:00,17.9,16.7,29.92,South,181,0.0,0.0,95,0.00,,,0.00,Wunderground v.1.15,2013-02-03 13:10:00,
2013-02-03 08:20:00,18.2,17.0,29.92,South,181,0.0,0.0,95,0.00,,,0.00,Wunderground v.1.15,2013-02-03 13:20:00,
2013-02-03 08:30:00,19.2,18.0,29.93,South,181,0.0,0.0,95,0.00,,,0.00,Wunderground v.1.15,2013-02-03 13:30:00,
2013-02-03 08:35:00,19.7,18.7,29.92,South,181,0.0,0.0,96,0.00,,,0.00,Wunderground v.1.15,2013-02-03 13:35:00,
2013-02-03 08:40:00,20.0,19.0,29.92,South,181,0.0,0.0,96,0.00,,,0.00,Wunderground v.1.15,2013-02-03 13:40:00,
2013-02-03 08:50:00,20.4,19.2,29.92,South,184,0.0,0.0,95,0.00,,,0.00,Wunderground v.1.15,2013-02-03 13:50:00,
2013-02-03 08:55:00,20.4,19.2,29.92,South,188,0.0,1.0,95,0.00,,,0.00,Wunderground v.1.15,2013-02-03 13:55:00,
2013-02-03 09:00:00,20.7,19.5,29.92,South,188,0.0,0.0,95,0.00,,,0.00,Wunderground v.1.15,2013-02-03 14:00:00,
2013-02-03 09:10:00,21.9,20.7,29.92,South,188,0.0,0.0,95,0.00,,,0.00,Wunderground v.1.15,2013-02-03 14:10:00,
2013-02-03 09:20:00,22.7,21.2,29.92,South,188,0.0,0.0,94,0.00,,,0.00,Wunderground v.1.15,2013-02-03 14:20:00,
2013-02-03 09:25:00,22.9,21.2,29.92,South,188,0.0,0.0,93,0.00,,,0.00,Wunderground v.1.15,2013-02-03 14:25:00,
2013-02-03 09:30:00,22.9,21.2,29.91,South,188,0.0,0.0,93,0.00,,,0.00,Wunderground v.1.15,2013-02-03 14:30:00,
2013-02-03 09:40:00,23.9,21.7,29.91,ENE,60,0.0,0.0,91,0.00,,,0.00,Wunderground v.1.15,2013-02-03 14:40:00,
2013-02-03 09:50:00,23.5,21.0,29.92,ENE,75,0.0,0.0,90,0.00,,,0.00,Wunderground v.1.15,2013-02-03 14:50:00,
2013-02-03 09:55:00,23.6,21.1,29.91,East,82,0.0,0.0,90,0.00,,,0.00,Wunderground v.1.15,2013-02-03 14:55:00,
2013-02-03 10:00:00,23.9,21.7,29.91,East,82,0.0,0.0,91,0.00,,,0.00,Wunderground v.1.15,2013-02-03 15:00:00,
2013-02-03 10:10:00,24.7,21.9,29.91,East,82,0.0,0.0,89,0.00,,,0.00,Wunderground v.1.15,2013-02-03 15:10:00,
2013-02-03 10:15:00,24.9,21.8,29.91,ENE,60,0.0,0.0,88,0.00,,,0.00,Wunderground v.1.15,2013-02-03 15:15:00,
2013-02-03 10:25:00,25.7,22.9,29.90,East,96,0.0,1.0,89,0.00,,,0.00,Wunderground v.1.15,2013-02-03 15:25:00,
2013-02-03 10:35:00,25.5,21.9,29.90,ESE,106,0.0,1.0,86,0.00,,,0.00,Wunderground v.1.15,2013-02-03 15:35:00,
2013-02-03 10:40:00,25.8,22.2,29.90,ENE,70,0.0,0.0,86,0.00,,,0.00,Wunderground v.1.15,2013-02-03 15:40:00,
2013-02-03 10:45:00,27.1,23.7,29.90,ENE,71,0.0,1.0,87,0.00,,,0.00,Wunderground v.1.15,2013-02-03 15:45:00,
2013-02-03 10:55:00,28.0,23.2,29.89,ENE,70,0.0,0.0,82,0.00,,,0.00,Wunderground v.1.15,2013-02-03 15:55:00,
2013-02-03 11:00:00,27.5,22.1,29.89,WNW,292,0.0,0.0,80,0.00,,,0.00,Wunderground v.1.15,2013-02-03 16:00:00,
2013-02-03 11:10:00,26.1,21.4,29.89,WSW,239,1.0,1.0,82,0.00,,,0.00,Wunderground v.1.15,2013-02-03 16:10:00,
2013-02-03 11:15:00,26.8,22.3,29.88,SW,222,1.0,1.0,83,0.00,,,0.00,Wunderground v.1.15,2013-02-03 16:15:00,
2013-02-03 11:25:00,28.6,23.8,29.87,SSE,152,0.0,0.0,82,0.00,,,0.00,Wunderground v.1.15,2013-02-03 16:25:00,
2013-02-03 11:30:00,28.8,22.5,29.87,SW,228,0.0,1.0,77,0.00,,,0.00,Wunderground v.1.15,2013-02-03 16:30:00,
2013-02-03 11:35:00,27.9,21.6,29.87,South,186,1.0,1.0,77,0.00,,,0.00,Wunderground v.1.15,2013-02-03 16:35:00,
2013-02-03 11:40:00,27.3,21.3,29.87,South,174,1.0,2.0,78,0.00,,,0.00,Wunderground v.1.15,2013-02-03 16:40:00,
2013-02-03 11:50:00,27.5,22.4,29.86,WSW,242,1.0,1.0,81,0.00,,,0.00,Wunderground v.1.15,2013-02-03 16:50:00,
2013-02-03 11:55:00,28.1,23.0,29.85,WSW,242,0.0,1.0,81,0.00,,,0.00,Wunderground v.1.15,2013-02-03 16:55:00,
2013-02-03 12:00:00,29.0,23.0,29.85,SW,217,0.0,1.0,78,0.00,,,0.00,Wunderground v.1.15,2013-02-03 17:00:00,
2013-02-03 12:10:00,28.9,22.6,29.85,NNW,335,0.0,2.0,77,0.00,,,0.00,Wunderground v.1.15,2013-02-03 17:10:00,
2013-02-03 12:20:00,29.5,23.5,29.84,NNW,329,1.0,2.0,78,0.00,,,0.00,Wunderground v.1.15,2013-02-03 17:20:00,
2013-02-03 12:30:00,29.7,23.1,29.84,NNE,13,2.0,3.0,76,0.00,,,0.00,Wunderground v.1.15,2013-02-03 17:30:00,
2013-02-03 12:35:00,29.7,22.7,29.84,NNE,18,2.0,4.0,75,0.00,,,0.00,Wunderground v.1.15,2013-02-03 17:35:00,
2013-02-03 12:40:00,29.4,22.1,29.84,ESE,104,3.0,4.0,74,0.00,,,0.00,Wunderground v.1.15,2013-02-03 17:40:00,
2013-02-03 12:50:00,29.3,23.3,29.83,ENE,72,1.0,1.0,78,0.00,,,0.01,Wunderground v.1.15,2013-02-03 17:50:00,
2013-02-03 12:55:00,29.8,22.5,29.83,East,80,1.0,1.0,74,0.06,,,0.02,Wunderground v.1.15,2013-02-03 17:55:00,
2013-02-03 13:00:00,29.0,21.4,29.83,NE,40,2.0,2.0,73,0.06,,,0.02,Wunderground v.1.15,2013-02-03 18:00:00,
2013-02-03 13:10:00,28.6,21.7,29.83,NNW,335,2.0,2.0,75,0.00,,,0.02,Wunderground v.1.15,2013-02-03 18:10:00,
2013-02-03 13:15:00,28.8,22.2,29.82,WNW,300,2.0,2.0,76,0.00,,,0.03,Wunderground v.1.15,2013-02-03 18:15:00,
2013-02-03 13:25:00,28.7,22.4,29.82,NW,321,0.0,1.0,77,0.00,,,0.03,Wunderground v.1.15,2013-02-03 18:25:00,
2013-02-03 13:30:00,28.3,22.0,29.81,ESE,113,1.0,2.0,77,0.00,,,0.03,Wunderground v.1.15,2013-02-03 18:30:00,
2013-02-03 13:35:00,28.4,22.4,29.81,East,88,1.0,3.0,78,0.00,,,0.03,Wunderground v.1.15,2013-02-03 18:35:00,
2013-02-03 13:40:00,28.4,22.1,29.81,ENE,63,2.0,2.0,77,0.00,,,0.03,Wunderground v.1.15,2013-02-03 18:40:00,
2013-02-03 13:50:00,28.6,22.3,29.81,ESE,115,1.0,1.0,77,0.00,,,0.03,Wunderground v.1.15,2013-02-03 18:50:00,
2013-02-03 14:00:00,28.3,22.3,29.80,ENE,62,2.0,4.0,78,0.00,,,0.04,Wunderground v.1.15,2013-02-03 19:00:00,
2013-02-03 14:10:00,28.3,22.3,29.80,ENE,63,3.0,3.0,78,0.00,,,0.04,Wunderground v.1.15,2013-02-03 19:10:00,
2013-02-03 14:20:00,28.6,22.3,29.80,ENE,60,3.0,3.0,77,0.00,,,0.04,Wunderground v.1.15,2013-02-03 19:20:00,
2013-02-03 14:25:00,28.6,21.7,29.80,NNE,22,3.0,3.0,75,0.00,,,0.04,Wunderground v.1.15,2013-02-03 19:25:00,
2013-02-03 14:35:00,28.6,21.4,29.79,NNW,336,2.0,3.0,74,0.00,,,0.04,Wunderground v.1.15,2013-02-03 19:35:00,
2013-02-03 14:40:00,28.6,21.4,29.80,NW,326,1.0,1.0,74,0.00,,,0.04,Wunderground v.1.15,2013-02-03 19:40:00,
2013-02-03 14:50:00,28.7,21.1,29.79,ESE,108,2.0,3.0,73,0.00,,,0.04,Wunderground v.1.15,2013-02-03 19:50:00,
2013-02-03 14:55:00,28.7,21.1,29.79,East,79,3.0,3.0,73,0.00,,,0.04,Wunderground v.1.15,2013-02-03 19:55:00,
2013-02-03 15:05:00,28.8,21.6,29.79,NE,53,2.0,5.0,74,0.00,,,0.04,Wunderground v.1.15,2013-02-03 20:05:00,
2013-02-03 15:10:00,28.8,21.9,29.80,East,81,3.0,5.0,75,0.00,,,0.04,Wunderground v.1.15,2013-02-03 20:10:00,
2013-02-03 15:15:00,28.8,21.9,29.80,ESE,103,4.0,5.0,75,0.00,,,0.04,Wunderground v.1.15,2013-02-03 20:15:00,
2013-02-03 15:20:00,28.7,21.8,29.80,ESE,103,4.0,4.0,75,0.00,,,0.04,Wunderground v.1.15,2013-02-03 20:20:00,
2013-02-03 15:30:00,28.8,21.9,29.80,NE,46,3.0,3.0,75,0.00,,,0.04,Wunderground v.1.15,2013-02-03 20:30:00,
2013-02-03 15:35:00,28.8,21.9,29.79,East,91,3.0,3.0,75,0.00,,,0.04,Wunderground v.1.15,2013-02-03 20:35:00,
2013-02-03 15:45:00,28.8,22.2,29.79,ESE,110,3.0,3.0,76,0.00,,,0.04,Wunderground v.1.15,2013-02-03 20:45:00,
2013-02-03 15:55:00,28.7,22.1,29.79,NE,51,4.0,4.0,76,0.00,,,0.04,Wunderground v.1.15,2013-02-03 20:55:00,
2013-02-03 16:00:00,29.0,22.7,29.79,NE,48,4.0,4.0,77,0.00,,,0.04,Wunderground v.1.15,2013-02-03 21:00:00,
2013-02-03 16:10:00,29.1,22.5,29.79,NNE,19,3.0,3.0,76,0.00,,,0.04,Wunderground v.1.15,2013-02-03 21:10:00,
2013-02-03 16:20:00,28.8,22.5,29.79,East,91,2.0,3.0,77,0.00,,,0.04,Wunderground v.1.15,2013-02-03 21:20:00,
2013-02-03 16:30:00,28.4,22.4,29.79,NE,37,3.0,3.0,78,0.00,,,0.04,Wunderground v.1.15,2013-02-03 21:30:00,
2013-02-03 16:35:00,28.3,22.6,29.79,ENE,70,2.0,3.0,79,0.00,,,0.04,Wunderground v.1.15,2013-02-03 21:35:00,
2013-02-03 16:45:00,27.9,22.2,29.79,ENE,67,1.0,2.0,79,0.00,,,0.04,Wunderground v.1.15,2013-02-03 21:45:00,
2013-02-03 16:50:00,27.7,22.3,29.79,NE,49,1.0,3.0,80,0.00,,,0.04,Wunderground v.1.15,2013-02-03 21:50:00,
2013-02-03 16:55:00,27.6,22.2,29.79,ENE,75,2.0,3.0,80,0.00,,,0.04,Wunderground v.1.15,2013-02-03 21:55:00,
2013-02-03 17:00:00,27.6,22.2,29.79,NNE,23,1.0,1.0,80,0.00,,,0.04,Wunderground v.1.15,2013-02-03 22:00:00,
2013-02-03 17:10:00,27.5,22.4,29.79,NE,51,1.0,3.0,81,0.00,,,0.04,Wunderground v.1.15,2013-02-03 22:10:00,
2013-02-03 17:20:00,27.3,22.2,29.79,NE,41,3.0,3.0,81,0.00,,,0.04,Wunderground v.1.15,2013-02-03 22:20:00,
2013-02-03 17:25:00,27.2,22.1,29.79,NE,34,3.0,3.0,81,0.00,,,0.04,Wunderground v.1.15,2013-02-03 22:25:00,
2013-02-03 17:30:00,27.2,22.4,29.79,NNE,29,2.0,2.0,82,0.00,,,0.04,Wunderground v.1.15,2013-02-03 22:30:00,
2013-02-03 17:40:00,27.1,22.3,29.79,NNE,30,3.0,4.0,82,0.00,,,0.04,Wunderground v.1.15,2013-02-03 22:40:00,
2013-02-03 17:45:00,27.0,22.5,29.78,NNE,27,3.0,4.0,83,0.00,,,0.04,Wunderground v.1.15,2013-02-03 22:45:00,
2013-02-03 17:50:00,27.0,22.5,29.78,North,354,3.0,3.0,83,0.00,,,0.04,Wunderground v.1.15,2013-02-03 22:50:00,
2013-02-03 18:00:00,26.7,22.8,29.79,NNE,12,1.0,2.0,85,0.00,,,0.04,Wunderground v.1.15,2013-02-03 23:00:00,
2013-02-03 18:10:00,26.6,22.7,29.78,NNW,332,1.0,1.0,85,0.00,,,0.04,Wunderground v.1.15,2013-02-03 23:10:00,
2013-02-03 18:15:00,26.5,22.9,29.79,NNW,332,1.0,1.0,86,0.00,,,0.04,Wunderground v.1.15,2013-02-03 23:15:00,
2013-02-03 18:25:00,26.3,23.0,29.79,NNW,333,1.0,1.0,87,0.00,,,0.04,Wunderground v.1.15,2013-02-03 23:25:00,
2013-02-03 18:30:00,26.3,23.0,29.79,NNW,333,1.0,1.0,87,0.00,,,0.04,Wunderground v.1.15,2013-02-03 23:30:00,
2013-02-03 18:40:00,26.2,23.1,29.80,NNW,336,1.0,1.0,88,0.00,,,0.04,Wunderground v.1.15,2013-02-03 23:40:00,
2013-02-03 18:45:00,26.3,23.2,29.80,NNW,335,1.0,1.0,88,0.00,,,0.04,Wunderground v.1.15,2013-02-03 23:45:00,
2013-02-03 18:55:00,26.5,23.7,29.80,NNW,339,1.0,1.0,89,0.00,,,0.04,Wunderground v.1.15,2013-02-03 23:55:00,
2013-02-03 19:00:00,26.5,23.7,29.80,NNE,32,1.0,1.0,89,0.00,,,0.04,Wunderground v.1.15,2013-02-04 00:00:00,
2013-02-03 19:10:00,26.5,24.0,29.79,NNE,32,0.0,0.0,90,0.00,,,0.04,Wunderground v.1.15,2013-02-04 00:10:00,
2013-02-03 19:20:00,26.5,24.0,29.80,NE,44,0.0,0.0,90,0.00,,,0.04,Wunderground v.1.15,2013-02-04 00:20:00,
2013-02-03 19:25:00,26.4,23.9,29.80,NE,44,0.0,0.0,90,0.00,,,0.04,Wunderground v.1.15,2013-02-04 00:25:00,
2013-02-03 19:30:00,26.4,23.9,29.80,NW,304,0.0,0.0,90,0.00,,,0.04,Wunderground v.1.15,2013-02-04 00:30:00,
2013-02-03 19:40:00,26.5,24.2,29.80,NW,304,0.0,0.0,91,0.00,,,0.04,Wunderground v.1.15,2013-02-04 00:40:00,
2013-02-03 19:45:00,26.5,24.2,29.80,NW,308,0.0,0.0,91,0.00,,,0.04,Wunderground v.1.15,2013-02-04 00:45:00,
2013-02-03 19:55:00,26.5,24.2,29.80,NNW,348,0.0,2.0,91,0.00,,,0.04,Wunderground v.1.15,2013-02-04 00:55:00,
2013-02-03 20:00:00,26.6,24.3,29.80,NNW,347,0.0,0.0,91,0.00,,,0.04,Wunderground v.1.15,2013-02-04 01:00:00,
2013-02-03 20:10:00,26.6,24.6,29.80,North,10,0.0,1.0,92,0.00,,,0.04,Wunderground v.1.15,2013-02-04 01:10:00,
2013-02-03 20:20:00,26.6,24.8,29.80,NE,50,1.0,1.0,93,0.00,,,0.04,Wunderground v.1.15,2013-02-04 01:20:00,
2013-02-03 20:25:00,26.6,24.8,29.80,ENE,60,1.0,1.0,93,0.00,,,0.04,Wunderground v.1.15,2013-02-04 01:25:00,
2013-02-03 20:30:00,26.7,24.9,29.80,NNE,33,1.0,1.0,93,0.00,,,0.04,Wunderground v.1.15,2013-02-04 01:30:00,
2013-02-03 20:40:00,26.8,25.0,29.80,NNE,23,2.0,2.0,93,0.00,,,0.04,Wunderground v.1.15,2013-02-04 01:40:00,
2013-02-03 20:50:00,26.9,25.4,29.81,ENE,78,2.0,4.0,94,0.00,,,0.04,Wunderground v.1.15,2013-02-04 01:50:00,
2013-02-03 20:55:00,27.0,25.5,29.81,SSE,160,3.0,4.0,94,0.00,,,0.04,Wunderground v.1.15,2013-02-04 01:55:00,
2013-02-03 21:00:00,26.8,25.3,29.81,East,91,1.0,3.0,94,0.00,,,0.04,Wunderground v.1.15,2013-02-04 02:00:00,
2013-02-03 21:10:00,26.6,25.1,29.81,East,82,1.0,1.0,94,0.00,,,0.04,Wunderground v.1.15,2013-02-04 02:10:00,
2013-02-03 21:20:00,26.7,25.5,29.81,East,79,1.0,1.0,95,0.00,,,0.04,Wunderground v.1.15,2013-02-04 02:20:00,
2013-02-03 21:25:00,26.9,25.7,29.82,East,98,2.0,2.0,95,0.00,,,0.04,Wunderground v.1.15,2013-02-04 02:25:00,
2013-02-03 21:30:00,26.9,25.7,29.82,ESE,111,2.0,3.0,95,0.00,,,0.04,Wunderground v.1.15,2013-02-04 02:30:00,
2013-02-03 21:40:00,26.9,25.7,29.82,ESE,104,3.0,4.0,95,0.00,,,0.04,Wunderground v.1.15,2013-02-04 02:40:00,
2013-02-03 21:50:00,26.8,25.8,29.82,ESE,111,6.0,11.0,96,0.00,,,0.04,Wunderground v.1.15,2013-02-04 02:50:00,
2013-02-03 21:55:00,26.7,25.7,29.83,SE,129,7.0,11.0,96,0.00,,,0.04,Wunderground v.1.15,2013-02-04 02:55:00,
2013-02-03 22:00:00,26.6,25.4,29.83,ESE,113,10.0,13.0,95,0.00,,,0.04,Wunderground v.1.15,2013-02-04 03:00:00,
2013-02-03 22:10:00,25.3,23.6,29.83,East,100,9.0,11.0,93,0.00,,,0.04,Wunderground v.1.15,2013-02-04 03:10:00,
2013-02-03 22:15:00,25.2,21.9,29.84,ESE,120,10.0,11.0,87,0.00,,,0.04,Wunderground v.1.15,2013-02-04 03:15:00,
2013-02-03 22:20:00,25.6,19.7,29.84,ESE,111,11.0,12.0,78,0.00,,,0.04,Wunderground v.1.15,2013-02-04 03:20:00,
2013-02-03 22:30:00,25.7,17.3,29.84,ESE,119,12.0,14.0,70,0.00,,,0.04,Wunderground v.1.15,2013-02-04 03:30:00,
2013-02-03 22:40:00,25.7,16.6,29.86,ESE,109,13.0,13.0,68,0.00,,,0.04,Wunderground v.1.15,2013-02-04 03:40:00,
2013-02-03 22:45:00,25.5,16.4,29.86,East,100,11.0,13.0,68,0.00,,,0.04,Wunderground v.1.15,2013-02-04 03:45:00,
2013-02-03 22:55:00,25.1,15.3,29.86,ESE,104,14.0,14.0,66,0.00,,,0.04,Wunderground v.1.15,2013-02-04 03:55:00,
2013-02-03 23:00:00,25.0,14.9,29.87,ESE,108,16.0,16.0,65,0.00,,,0.04,Wunderground v.1.15,2013-02-04 04:00:00,
2013-02-03 23:10:00,24.8,14.3,29.87,ESE,108,14.0,14.0,64,0.00,,,0.04,Wunderground v.1.15,2013-02-04 04:10:00,
2013-02-03 23:15:00,24.6,14.5,29.87,East,84,12.0,14.0,65,0.00,,,0.04,Wunderground v.1.15,2013-02-04 04:15:00,
2013-02-03 23:25:00,24.2,14.8,29.87,ESE,102,11.0,11.0,67,0.00,,,0.04,Wunderground v.1.15,2013-02-04 04:25:00,
2013-02-03 23:30:00,23.9,14.5,29.87,ESE,103,11.0,11.0,67,0.00,,,0.04,Wunderground v.1.15,2013-02-04 04:30:00,
2013-02-03 23:40:00,23.8,14.1,29.88,ESE,115,12.0,12.0,66,0.00,,,0.04,Wunderground v.1.15,2013-02-04 04:40:00,
2013-02-03 23:45:00,23.6,13.9,29.88,East,92,11.0,12.0,66,0.00,,,0.04,Wunderground v.1.15,2013-02-04 04:45:00,
2013-02-03 23:50:00,23.5,13.8,29.88,ESE,104,11.0,16.0,66,0.00,,,0.04,Wunderground v.1.15,2013-02-04 04:50:00,